{"data":{"norad_id":55964,"epoch":"2026-05-25T04:23:12.778656Z","epoch_age_seconds":59104,"freshness":"FRESH","line1":"1 55964U 23037BC  26145.18278679  .00014252  00000+0  88611-3 0  9990","line2":"2 55964  69.9962  64.6315 0005301 220.4374 139.6398 15.09735326176103","mean_motion":15.09735326,"eccentricity":0.0005301,"inclination_deg":69.9962,"raan_deg":64.6315,"arg_perigee_deg":220.4374,"mean_anomaly_deg":139.6398,"bstar":0.00088611,"rev_number":17610,"period_min":95.380956860514,"perigee_km":533.34236968357,"apogee_km":540.67380650597,"semimajor_km":6915.1450880948,"source":"CELESTRAK","updated_at":"2026-05-25T13:38:17.921164Z"}}